SCP
0 0 0 -0 -0 -0 0 0 0 0 0 0 0 0 0 0 0 0 0 0 0 0 0 0 0 0 0 0 0 0 0 0 0 0 0 0 0 0 0 0 0 0 0 0
0 0 0 0 0 -0 0 0 0 0 0 0 0 0 0 0 0 0 0 0 0 0 0 0 0 0 0 0 0 0 0 0 0 0 0 0 0 0 0 0 0 0 0 0
0 0 0 0 0 0 0 0 0 0 0 0 0 0 0 0 0 0 0 0 0 0 0 0 0 0 0 0 0 0 0 0 0 0 0 0 0 0 -0 0 0 0 0 0
0 0 0 0 0 0 0 0 0 0 0 0 0 0 0 0 0 0 0 0 0 0 0 0 0 0 0 0 0 0 0 0 0 0 0 0 0 0 0 0 0 0 0 0
0 0 0 0 0 0 0 0 0 0 0 0 0 0 0 0 0 0 0 0 0 0 0 0 0 0 0 0 0 0 0 0 0 0 0 0 0 0 0 0 0 0 0 0
0 0 0 0 0 0 0 0 0 0 0 0 0 0 0 0 0 0 0 0 0 0 0 0 0 0 0 0 0 0 0 0 0 0 0 0 0 0 0 0 0 0 0 0
0 0 0 0 0 0 0 0 0 0 0 0 0 0 0 0 0 0 0 0 0 0 0 0 0 0 0 0 0 0 0 0 0 0 0 0 0 0 0 0 0 0 0 0
0 0 0 0 0 0 0 0 0 0 0 0 0 0 0 0 0 0 0 0 0 0 0 0 0 0 0 0 -0 0 0 0 0 0 0 0 0 0 0 0 0 0 0 0
0 0 0 0 0 0 0 0 0 0 0 0 0 0 0 0 0 0 0 0 0 0 0 0 0 0 0 0 0 0 0 0 0 0 0 0 0 0 0 0 0 0 0 0
0 0 0 0 0 0 0 0 0 0 0 0 0 0 0 0 0 0 0 0 0 0 0 0 0 0 0 0 0 0 0 0 0 0 0 0 0 0 0 0 0 0 0 0
0 0 0 0 0 0 0 0 0 0 0 0 0 0 0 0 0 0 0 0 0 0 0 0 0 0 0 0 0 0 0 0 0 0 0 0 0 0 0 0 0 0 0 0
0 0 0 0 0 0 0 0 0 0 0 0 0 0 0 0 0 0 0 0 0 0 0 0 0 0 0 0 0 0 0 0 0 0 0 0 0 0 0 0 0 0 0 0
0 0 0 0 0 0 0 0 0 0 0 0 0 0 0 0 0 0 0 0 0 0 0 0 0 0 0 0 0 0 0 0 0 0 0 0 0 0 0 0 0 0 0 0
0 0 0 0 0 0 0 0 0 0 0 0 0 0 0 0 0 0 0 0 0 0 0 0 0 0 0 0 0 0 0 0 0 0 0 0 0 0 0 0 0 0 0 0
0 0 0 0 0 0 0 0 0 0 0 0 0 0 0 0 0 0 0 0 0 0 0 0 0 0 0 0 0 0 0 0 0 0 0 0 0 0 0 0 0 0 0 0
0 0 0 0 0 0 0 0 0 0 0 0 0 0 0 0 0 0 0 0 0 0 0 0 0 0 0 0 0 0 0 0 0 0 0 0 0 0 0 0 0 0 0 0
0 0 0 0 0 0 0 0 0 0 0 0 0 0 0 0 0 0 0 0 0 0 0 0 0 0 0 0 0 0 0 0 0 0 0 0 0 0 0 0 0 0 0 0
0 0 0 0 0 0 0 0 0 0 0 0 0 0 0 0 0 0 0 0 0 0 0 0 0 0 0 0 0 0 0 0 0 0 0 0 0 0 0 0 0 0 0 0
0 0 0 0 0 0 0 0 0 0 0 0 0 0 0 0 0 0 0 0 0 0 0 0 0 0 0 0 0 0 0 0 0 0 0 0 0 0 0 0 0 0 0 -0
0 0 0 0 0 0 0 0 0 0 0 0 0 0 0 0 0 0 0 0 0 0 0 0 0 0 0 0 0 0 0 0 0 0 0 0 0 0 0 0 0 0 0 0
0 0 0 0 0 0 0 0 0 0 0 0 0 0 0 0 0 0 0 0 0 0 0 1 0 0 0 0 0 0 0 0 0 0 0 0 0 0 0 0 0 0 0 0
0 0 0 0 0 0 0 0 0 0 0 0 0 0 0 0 0 0 0 0 0 0 0 0 0 0 0 0 0 0 0 0 0 0 0 0 0 0 0 0 0 0 0 0
0 0 0 0 0 0 0 0 0 0 0 0 0 0 0 0 0 0 0 0 0 0 0 0 0 0 0 0 0 0 0 0 0 0 0 0 0 0 0 0 0 0 0 0
0 0 0 0 0 0 0 0 0 0 0 0 0 0 0 0 0 0 0 0 0 0 0 0 0 0 0 0 0 0 0 0 0 0 0 0 0 0 0 0 0 0 0 0
0 0 0 0 0 0 0 0 0 0 0 0 0 0 0 0 0 0 0 0 0 0 0 1 0 0 0 0 0 0 0 0 0 0 0 0 0 0 0 0 0 0 0 0
0 0 0 0 0 0 0 0 0 0 0 0 0 0 0 0 0 0 0 0 0 0 1 0 0 0 0 0 0 0 0 0 0 0 0 0 0 0 0 0 0 0 0 0
0 0 0 0 0 0 0 0 0 0 0 0 0 0 0 0 0 0 0 0 0 0 0 0 0 0 0 0 0 0 0 0 0 0 0 0 0 0 0 0 0 0 0 0
Wind_Speed_500mb
12 9 11 16 22 19 10 4 1 15 7 4 7 4 5 2 9 5 7 7 11 11 10 9 9 9 12 14 20 15 12 7 10 37 35 7 10 17 17 5 16 19 24 27
14 10 8 11 16 21 10 8 10 16 8 3 4 10 8 9 2 9 6 5 8 6 8 6 8 10 8 14 14 14 19 5 11 15 9 6 24 38 37 33 4 17 15 21
13 12 8 7 9 14 11 5 5 7 6 5 13 10 8 7 7 6 5 4 3 4 7 4 9 14 7 3 12 5 4 12 12 15 29 35 37 44 48 39 23 34 30 56
13 10 10 8 7 8 6 6 5 5 3 5 10 5 2 8 4 2 3 2 3 7 7 12 8 10 18 24 5 4 5 11 23 34 38 39 45 49 49 46 41 37 49 45
14 10 8 8 7 5 11 12 6 4 6 4 3 3 2 4 9 6 6 6 7 7 10 6 22 25 22 16 26 10 8 8 6 14 38 40 39 45 50 51 43 42 40 43
17 13 9 8 5 5 6 5 7 5 2 3 1 4 3 1 7 7 6 13 17 12 16 21 25 32 39 43 34 30 28 6 3 17 18 23 21 29 33 27 34 34 31 42
21 16 13 10 8 5 8 4 4 3 1 5 9 7 9 8 9 10 12 15 16 18 19 27 32 34 44 49 50 43 19 8 5 5 6 12 14 41 47 40 31 34 38 42
24 19 14 12 10 8 8 6 4 1 2 13 17 15 15 18 18 16 18 21 9 11 14 8 12 7 7 15 23 17 16 10 4 6 17 35 32 35 25 37 27 31 21 36
28 24 18 14 11 10 9 6 14 5 3 10 25 24 23 10 13 22 26 16 11 5 5 5 4 5 7 6 14 18 18 16 2 5 26 30 5 36 54 29 29 28 36 44
36 30 26 22 17 15 13 13 16 12 8 23 14 16 14 24 17 11 9 5 6 8 4 3 8 9 16 9 6 7 5 6 12 21 20 19 28 39 31 13 10 53 46 51
44 39 35 30 25 22 21 20 22 21 12 25 22 24 29 26 19 5 9 5 8 5 6 6 8 7 8 9 16 13 16 11 9 9 11 21 11 26 11 36 59 65 56 52
51 49 45 42 36 31 29 33 25 27 26 19 15 28 44 35 37 36 25 13 12 16 6 7 6 6 4 5 17 29 11 14 14 18 15 57 79 76 61 89 72 75 66 69
57 56 53 50 45 42 39 40 37 32 34 45 50 53 60 51 52 44 37 25 26 27 28 18 7 9 7 8 8 11 11 37 24 32 39 59 77 89 82 73 68 65 62 52
60 55 54 52 49 49 46 45 42 42 21 13 28 48 62 54 42 43 47 52 48 47 39 24 7 6 23 10 18 19 16 23 24 42 57 66 64 62 75 78 73 43 54 42
66 60 62 59 56 51 48 49 51 48 40 10 13 27 40 34 34 38 48 49 52 49 28 16 8 12 11 25 20 14 23 29 19 35 65 57 76 79 80 58 39 42 42 46
76 75 74 66 60 56 47 46 70 61 59 18 6 19 30 44 55 53 57 58 59 57 26 16 22 46 22 8 24 28 45 43 49 59 90 90 80 66 54 45 44 42 48 43
52 58 70 73 63 61 65 17 18 32 43 12 10 11 8 39 48 40 50 55 57 48 34 23 22 20 27 5 22 66 60 63 77 80 63 44 42 41 38 32 40 49 40 31
43 43 40 48 60 56 47 46 27 30 37 16 6 7 7 11 10 11 17 8 17 15 11 4 6 12 17 11 44 60 65 61 61 41 41 36 32 34 38 43 49 47 36 35
14 27 31 33 34 21 26 29 25 40 22 11 9 5 5 13 7 5 2 4 2 8 9 13 10 8 15 22 44 48 55 53 30 26 26 25 30 39 45 51 55 41 32 39
23 26 10 9 11 16 10 8 7 10 12 12 9 11 7 13 13 5 2 3 4 5 9 13 9 19 62 64 63 55 16 14 15 18 27 39 41 44 51 52 47 35 48 35
15 9 7 18 25 9 6 4 4 6 6 10 9 23 3 6 5 4 11 2 4 6 7 7 7 8 26 28 11 8 10 12 13 18 25 33 41 48 54 56 51 55 39 28
9 14 26 22 7 5 4 6 7 6 6 11 11 9 6 8 4 7 11 5 6 12 8 4 7 7 12 3 5 6 10 21 25 27 38 49 54 56 57 58 54 51 40 33
18 5 7 7 6 7 9 12 7 7 5 5 6 6 4 4 1 4 4 8 11 8 6 7 7 8 20 4 5 12 21 25 24 46 53 55 56 59 58 58 56 47 37 30
5 6 7 8 8 8 5 3 5 8 18 21 17 8 2 5 2 4 6 8 6 7 9 11 3 11 6 9 14 21 30 29 50 53 60 64 62 59 57 57 49 45 33 26
4 5 6 9 4 10 9 12 13 23 16 9 7 5 3 3 4 5 7 7 11 11 7 5 25 19 13 21 30 38 47 46 54 63 61 64 64 60 64 56 61 50 24 19
5 6 4 4 3 3 1 4 8 12 11 6 4 3 3 9 7 13 15 9 13 8 6 30 32 34 35 36 50 47 47 56 58 64 57 57 62 64 65 61 56 36 18 22
5 7 10 2 3 5 12 15 12 14 14 4 6 7 15 8 10 14 10 13 14 26 32 39 42 49 52 55 56 56 59 65 63 57 61 64 68 61 63 61 41 23 21 26
Wind_Direction_500mb
302 328 345 1 13 25 42 336 119 13 116 212 323 71 42 355 81 67 56 30 33 9 0 341 1 350 41 3 337 337 64 288 290 289 277 332 280 279 291 261 284 290 297 281
290 308 330 354 10 23 31 350 58 28 38 103 99 134 91 37 131 36 43 77 27 13 5 349 25 0 93 345 338 27 358 312 309 337 125 175 324 315 307 301 256 251 260 270
272 293 307 334 4 16 33 338 27 25 23 320 141 145 152 111 36 63 48 64 287 341 340 81 316 317 75 271 284 259 321 268 280 279 292 303 310 313 309 302 292 293 270 289
240 264 297 319 346 15 34 20 51 350 105 52 68 40 335 145 155 63 326 147 348 5 35 341 303 322 331 322 296 205 226 260 274 283 294 308 302 291 285 282 288 288 295 292
240 247 267 300 327 46 50 358 353 27 40 356 192 57 34 282 114 325 105 318 346 319 298 287 316 334 330 308 296 259 178 246 280 273 290 294 305 302 287 288 288 281 288 290
227 237 251 270 295 69 28 18 62 18 332 49 36 218 280 318 43 101 336 341 331 345 331 331 327 308 293 281 282 277 275 206 170 281 299 330 290 259 269 272 299 289 301 310
229 236 242 246 246 223 129 262 2 96 237 234 233 246 268 259 243 281 328 323 306 303 304 309 303 295 285 282 277 271 261 130 141 287 332 241 254 317 308 299 303 303 306 298
230 231 238 249 244 225 182 231 124 189 199 242 275 263 283 283 269 264 271 279 20 347 319 19 340 299 347 280 239 247 249 137 189 257 261 282 288 275 327 313 299 300 337 349
235 237 235 240 242 235 230 241 211 211 191 242 247 270 268 249 257 283 276 267 284 329 81 97 220 277 294 298 331 64 50 69 289 279 287 295 324 312 297 306 279 19 346 313
233 238 237 239 243 242 224 222 237 221 237 258 247 246 262 264 267 285 306 231 264 255 92 148 236 240 256 264 207 280 50 321 249 259 268 271 280 291 355 290 332 307 331 332
233 235 241 241 244 247 244 237 245 228 239 261 247 248 257 264 256 254 253 346 222 86 167 194 228 229 246 272 270 282 297 298 259 238 244 280 282 335 331 313 313 330 323 315
237 239 240 244 246 245 244 250 256 249 246 255 259 233 242 256 262 286 270 236 264 192 181 201 230 252 218 264 275 266 256 218 265 259 270 288 299 301 314 318 317 322 309 315
236 239 242 244 246 245 246 249 251 263 265 273 265 259 265 258 250 246 262 262 240 244 239 278 200 230 210 231 239 242 253 259 261 289 277 284 298 298 300 300 316 312 312 332
239 238 240 242 246 249 250 254 255 257 256 249 261 274 267 265 260 246 248 251 257 260 261 262 196 188 199 216 249 257 253 294 271 274 275 290 288 292 299 302 306 318 324 332
240 243 243 249 245 248 252 256 256 252 242 273 264 263 259 273 254 244 245 246 248 250 242 224 237 225 226 246 263 242 246 256 257 271 288 286 286 295 297 320 322 335 322 329
240 245 238 243 241 240 241 251 254 242 244 256 306 264 246 251 242 242 245 245 243 238 242 225 241 246 214 243 268 272 267 276 271 287 291 288 289 314 324 333 345 327 331 335
239 237 238 237 244 234 221 223 211 220 218 234 283 266 249 229 234 243 251 251 246 243 243 234 245 228 205 230 267 280 284 280 281 280 291 337 320 318 322 336 337 330 335 347
233 233 233 234 229 227 223 224 203 180 182 187 213 266 292 191 217 230 233 247 234 231 240 204 205 254 209 247 258 277 282 284 292 322 320 314 334 334 334 339 333 333 345 342
205 215 211 216 198 205 203 204 205 190 192 192 202 208 189 175 176 225 296 261 318 276 248 207 199 212 228 250 272 276 290 303 325 321 330 337 346 336 334 331 331 330 330 345
137 141 144 143 156 141 172 216 215 233 218 212 217 210 211 200 173 181 267 241 242 249 243 233 213 250 260 270 275 282 322 353 353 3 360 351 337 331 329 326 323 311 320 331
156 142 106 133 131 99 144 171 205 205 243 212 220 205 202 184 135 177 209 253 224 256 252 233 241 243 246 268 274 359 17 12 3 355 337 324 323 320 322 315 309 304 307 304
149 132 123 133 142 132 206 186 183 222 248 169 180 194 195 139 186 200 192 248 220 252 346 275 252 259 241 256 273 308 342 339 331 330 325 317 310 308 307 306 299 291 300 300
137 104 116 144 155 190 220 190 199 192 112 102 125 75 82 56 170 243 259 240 238 336 235 244 247 237 237 249 333 338 334 324 315 316 313 308 303 300 300 304 301 287 292 289
179 162 175 212 169 246 205 272 73 91 122 106 113 101 139 150 207 226 256 246 268 255 239 242 280 47 69 343 329 317 314 301 311 319 321 318 313 303 298 308 298 288 274 275
154 162 223 210 227 73 83 110 108 132 111 101 85 94 8 141 278 235 276 251 239 227 244 317 11 19 3 340 328 316 308 313 310 319 314 312 317 306 301 303 303 277 257 269
189 216 252 107 79 156 18 102 135 155 134 114 95 135 218 224 226 210 217 240 238 269 3 342 334 322 321 323 325 315 309 311 310 312 309 307 309 305 299 296 301 260 231 268
208 220 226 173 154 68 199 222 199 179 145 198 186 225 226 231 224 222 225 252 284 316 328 321 313 312 306 311 311 304 306 306 304 305 304 303 313 302 304 301 277 219 241 263
Wind_Speed_850mb
12 9 11 16 22 19 10 4 1 15 7 4 7 4 5 2 9 5 7 7 11 11 10 9 9 9 12 14 20 15 12 7 10 37 35 7 10 17 17 5 16 19 24 27
14 10 8 11 16 21 10 8 10 16 8 3 4 10 8 9 2 9 6 5 8 6 8 6 8 10 8 14 14 14 19 5 11 15 9 6 24 38 37 33 4 17 15 21
13 12 8 7 9 14 11 5 5 7 6 5 13 10 8 7 7 6 5 4 3 4 7 4 9 14 7 3 12 5 4 12 12 15 29 35 37 44 48 39 23 34 30 56
13 10 10 8 7 8 6 6 5 5 3 5 10 5 2 8 4 2 3 2 3 7 7 12 8 10 18 24 5 4 5 11 23 34 38 39 45 49 49 46 41 37 49 45
14 10 8 8 7 5 11 12 6 4 6 4 3 3 2 4 9 6 6 6 7 7 10 6 22 25 22 16 26 10 8 8 6 14 38 40 39 45 50 51 43 42 40 43
17 13 9 8 5 5 6 5 7 5 2 3 1 4 3 1 7 7 6 13 17 12 16 21 25 32 39 43 34 30 28 6 3 17 18 23 21 29 33 27 34 34 31 42
21 16 13 10 8 5 8 4 4 3 1 5 9 7 9 8 9 10 12 15 16 18 19 27 32 34 44 49 50 43 19 8 5 5 6 12 14 41 47 40 31 34 38 42
24 19 14 12 10 8 8 6 4 1 2 13 17 15 15 18 18 16 18 21 9 11 14 8 12 7 7 15 23 17 16 10 4 6 17 35 32 35 25 37 27 31 21 36
28 24 18 14 11 10 9 6 14 5 3 10 25 24 23 10 13 22 26 16 11 5 5 5 4 5 7 6 14 18 18 16 2 5 26 30 5 36 54 29 29 28 36 44
36 30 26 22 17 15 13 13 16 12 8 23 14 16 14 24 17 11 9 5 6 8 4 3 8 9 16 9 6 7 5 6 12 21 20 19 28 39 31 13 10 53 46 51
44 39 35 30 25 22 21 20 22 21 12 25 22 24 29 26 19 5 9 5 8 5 6 6 8 7 8 9 16 13 16 11 9 9 11 21 11 26 11 36 59 65 56 52
51 49 45 42 36 31 29 33 25 27 26 19 15 28 44 35 37 36 25 13 12 16 6 7 6 6 4 5 17 29 11 14 14 18 15 57 79 76 61 89 72 75 66 69
57 56 53 50 45 42 39 40 37 32 34 45 50 53 60 51 52 44 37 25 26 27 28 18 7 9 7 8 8 11 11 37 24 32 39 59 77 89 82 73 68 65 62 52
60 55 54 52 49 49 46 45 42 42 21 13 28 48 62 54 42 43 47 52 48 47 39 24 7 6 23 10 18 19 16 23 24 42 57 66 64 62 75 78 73 43 54 42
66 60 62 59 56 51 48 49 51 48 40 10 13 27 40 34 34 38 48 49 52 49 28 16 8 12 11 25 20 14 23 29 19 35 65 57 76 79 80 58 39 42 42 46
76 75 74 66 60 56 47 46 70 61 59 18 6 19 30 44 55 53 57 58 59 57 26 16 22 46 22 8 24 28 45 43 49 59 90 90 80 66 54 45 44 42 48 43
52 58 70 73 63 61 65 17 18 32 43 12 10 11 8 39 48 40 50 55 57 48 34 23 22 20 27 5 22 66 60 63 77 80 63 44 42 41 38 32 40 49 40 31
43 43 40 48 60 56 47 46 27 30 37 16 6 7 7 11 10 11 17 8 17 15 11 4 6 12 17 11 44 60 65 61 61 41 41 36 32 34 38 43 49 47 36 35
14 27 31 33 34 21 26 29 25 40 22 11 9 5 5 13 7 5 2 4 2 8 9 13 10 8 15 22 44 48 55 53 30 26 26 25 30 39 45 51 55 41 32 39
23 26 10 9 11 16 10 8 7 10 12 12 9 11 7 13 13 5 2 3 4 5 9 13 9 19 62 64 63 55 16 14 15 18 27 39 41 44 51 52 47 35 48 35
15 9 7 18 25 9 6 4 4 6 6 10 9 23 3 6 5 4 11 2 4 6 7 7 7 8 26 28 11 8 10 12 13 18 25 33 41 48 54 56 51 55 39 28
9 14 26 22 7 5 4 6 7 6 6 11 11 9 6 8 4 7 11 5 6 12 8 4 7 7 12 3 5 6 10 21 25 27 38 49 54 56 57 58 54 51 40 33
18 5 7 7 6 7 9 12 7 7 5 5 6 6 4 4 1 4 4 8 11 8 6 7 7 8 20 4 5 12 21 25 24 46 53 55 56 59 58 58 56 47 37 30
5 6 7 8 8 8 5 3 5 8 18 21 17 8 2 5 2 4 6 8 6 7 9 11 3 11 6 9 14 21 30 29 50 53 60 64 62 59 57 57 49 45 33 26
4 5 6 9 4 10 9 12 13 23 16 9 7 5 3 3 4 5 7 7 11 11 7 5 25 19 13 21 30 38 47 46 54 63 61 64 64 60 64 56 61 50 24 19
5 6 4 4 3 3 1 4 8 12 11 6 4 3 3 9 7 13 15 9 13 8 6 30 32 34 35 36 50 47 47 56 58 64 57 57 62 64 65 61 56 36 18 22
5 7 10 2 3 5 12 15 12 14 14 4 6 7 15 8 10 14 10 13 14 26 32 39 42 49 52 55 56 56 59 65 63 57 61 64 68 61 63 61 41 23 21 26
Wind_Direction_850mb
302 328 345 1 13 25 42 336 119 13 116 212 323 71 42 355 81 67 56 30 33 9 0 341 1 350 41 3 337 337 64 288 290 289 277 332 280 279 291 261 284 290 297 281
290 308 330 354 10 23 31 350 58 28 38 103 99 134 91 37 131 36 43 77 27 13 5 349 25 0 93 345 338 27 358 312 309 337 125 175 324 315 307 301 256 251 260 270
272 293 307 334 4 16 33 338 27 25 23 320 141 145 152 111 36 63 48 64 287 341 340 81 316 317 75 271 284 259 321 268 280 279 292 303 310 313 309 302 292 293 270 289
240 264 297 319 346 15 34 20 51 350 105 52 68 40 335 145 155 63 326 147 348 5 35 341 303 322 331 322 296 205 226 260 274 283 294 308 302 291 285 282 288 288 295 292
240 247 267 300 327 46 50 358 353 27 40 356 192 57 34 282 114 325 105 318 346 319 298 287 316 334 330 308 296 259 178 246 280 273 290 294 305 302 287 288 288 281 288 290
227 237 251 270 295 69 28 18 62 18 332 49 36 218 280 318 43 101 336 341 331 345 331 331 327 308 293 281 282 277 275 206 170 281 299 330 290 259 269 272 299 289 301 310
229 236 242 246 246 223 129 262 2 96 237 234 233 246 268 259 243 281 328 323 306 303 304 309 303 295 285 282 277 271 261 130 141 287 332 241 254 317 308 299 303 303 306 298
230 231 238 249 244 225 182 231 124 189 199 242 275 263 283 283 269 264 271 279 20 347 319 19 340 299 347 280 239 247 249 137 189 257 261 282 288 275 327 313 299 300 337 349
235 237 235 240 242 235 230 241 211 211 191 242 247 270 268 249 257 283 276 267 284 329 81 97 220 277 294 298 331 64 50 69 289 279 287 295 324 312 297 306 279 19 346 313
233 238 237 239 243 242 224 222 237 221 237 258 247 246 262 264 267 285 306 231 264 255 92 148 236 240 256 264 207 280 50 321 249 259 268 271 280 291 355 290 332 307 331 332
233 235 241 241 244 247 244 237 245 228 239 261 247 248 257 264 256 254 253 346 222 86 167 194 228 229 246 272 270 282 297 298 259 238 244 280 282 335 331 313 313 330 323 315
237 239 240 244 246 245 244 250 256 249 246 255 259 233 242 256 262 286 270 236 264 192 181 201 230 252 218 264 275 266 256 218 265 259 270 288 299 301 314 318 317 322 309 315
236 239 242 244 246 245 246 249 251 263 265 273 265 259 265 258 250 246 262 262 240 244 239 278 200 230 210 231 239 242 253 259 261 289 277 284 298 298 300 300 316 312 312 332
239 238 240 242 246 249 250 254 255 257 256 249 261 274 267 265 260 246 248 251 257 260 261 262 196 188 199 216 249 257 253 294 271 274 275 290 288 292 299 302 306 318 324 332
240 243 243 249 245 248 252 256 256 252 242 273 264 263 259 273 254 244 245 246 248 250 242 224 237 225 226 246 263 242 246 256 257 271 288 286 286 295 297 320 322 335 322 329
240 245 238 243 241 240 241 251 254 242 244 256 306 264 246 251 242 242 245 245 243 238 242 225 241 246 214 243 268 272 267 276 271 287 291 288 289 314 324 333 345 327 331 335
239 237 238 237 244 234 221 223 211 220 218 234 283 266 249 229 234 243 251 251 246 243 243 234 245 228 205 230 267 280 284 280 281 280 291 337 320 318 322 336 337 330 335 347
233 233 233 234 229 227 223 224 203 180 182 187 213 266 292 191 217 230 233 247 234 231 240 204 205 254 209 247 258 277 282 284 292 322 320 314 334 334 334 339 333 333 345 342
205 215 211 216 198 205 203 204 205 190 192 192 202 208 189 175 176 225 296 261 318 276 248 207 199 212 228 250 272 276 290 303 325 321 330 337 346 336 334 331 331 330 330 345
137 141 144 143 156 141 172 216 215 233 218 212 217 210 211 200 173 181 267 241 242 249 243 233 213 250 260 270 275 282 322 353 353 3 360 351 337 331 329 326 323 311 320 331
156 142 106 133 131 99 144 171 205 205 243 212 220 205 202 184 135 177 209 253 224 256 252 233 241 243 246 268 274 359 17 12 3 355 337 324 323 320 322 315 309 304 307 304
149 132 123 133 142 132 206 186 183 222 248 169 180 194 195 139 186 200 192 248 220 252 346 275 252 259 241 256 273 308 342 339 331 330 325 317 310 308 307 306 299 291 300 300
137 104 116 144 155 190 220 190 199 192 112 102 125 75 82 56 170 243 259 240 238 336 235 244 247 237 237 249 333 338 334 324 315 316 313 308 303 300 300 304 301 287 292 289
179 162 175 212 169 246 205 272 73 91 122 106 113 101 139 150 207 226 256 246 268 255 239 242 280 47 69 343 329 317 314 301 311 319 321 318 313 303 298 308 298 288 274 275
154 162 223 210 227 73 83 110 108 132 111 101 85 94 8 141 278 235 276 251 239 227 244 317 11 19 3 340 328 316 308 313 310 319 314 312 317 306 301 303 303 277 257 269
189 216 252 107 79 156 18 102 135 155 134 114 95 135 218 224 226 210 217 240 238 269 3 342 334 322 321 323 325 315 309 311 310 312 309 307 309 305 299 296 301 260 231 268
208 220 226 173 154 68 199 222 199 179 145 198 186 225 226 231 224 222 225 252 284 316 328 321 313 312 306 311 311 304 306 306 304 305 304 303 313 302 304 301 277 219 241 263